Regional Weather Roundup
Issued by NWS

Home | Current Version | Previous Version | Text Only | Print | Product List | Glossary On
Versions: 1 2 3 4 5 6 7 8 9 10 11 12 13 14 15 16 17 18 19 20 21 22 23 24 25 26 27 28 29 30 31 32 33 34 35 36 37 38 39 40 41 42 43 44 45 46 47 48 49 50
000
ASUS43 KDTX 031601
RWRMI
MICHIGAN HOURLY REGIONAL WEATHER ROUNDUP
NATIONAL WEATHER SERVICE DETROIT/PONTIAC MI
1200 PM EDT FRI JUL 03 2015

NOTE: "FAIR" INDICATES FEW OR NO CLOUDS BELOW 12,000 FEET WITH NO
SIGNIFICANT WEATHER AND/OR OBSTRUCTION TO VISIBILITY.

MIZ047>049-052>055-059>063-066>070-074>076-081>083-031700-
SOUTHEAST LOWER MICHIGAN

CITY           SKY/WX    TMP DP  RH WIND       PRES   REMARKS
ADRIAN         MOSUNNY   70  51  51 SE7       29.99S
ALMA           PTSUNNY   68  46  45 SW3       30.01S HAZE
ANN ARBOR      MOSUNNY   71  52  50 VRB6      29.99S
BAD AXE        MOSUNNY   67  38  34 CALM      30.01S
CARO           PTSUNNY   67  47  48 SE6       30.00S
DETROIT CITY   MOSUNNY   70  53  54 E6        29.99S
DETROIT        PTSUNNY   71  54  54 CALM      29.99F
FLINT          PTSUNNY   69  41  36 CALM      30.01R
GROSSE ILE     MOSUNNY   70  57  64 NE3       29.98S
HILLSDALE      SUNNY     69  51  53 E6        29.99S
HOWELL         MOSUNNY   69  49  49 W3        30.00S

CITY           SKY/WX    TMP DP  RH WIND       PRES   REMARKS
JACKSON        SUNNY     70  53  54 NE6       29.99F
LAMBERTVILLE   MOSUNNY   70  53  56 E6        29.98S
LANSING        PTSUNNY   69  51  52 N5        30.00S
LAPEER         FAIR      67  48  49 CALM      30.01R
MASON          MOSUNNY   66  51  57 CALM      29.99F
MONROE         MOSUNNY   69  54  59 E6        29.98S
MT. CLEMENS    PTSUNNY   67  54  62 E6        29.98R
PONTIAC        PTSUNNY   67  47  48 S5        29.99S
PORT HOPE        N/A     64  51  62 E10       30.00S
PORT HURON     MOSUNNY   68  54  60 CALM      30.00R
TRI CITIES     MOSUNNY   69  43  38 CALM      30.01F
MIDLAND        FAIR      69  44  41 CALM      30.01R
TROY           MOSUNNY   70  49  47 CALM      30.01S
SAGINAW HB     PTSUNNY   68  41  37 CALM      30.00S
$$
MIZ043>046-050>051-056>058-064>065-071>073-077>080-031700-
SOUTHWEST LOWER MICHIGAN

CITY           SKY/WX    TMP DP  RH WIND       PRES   REMARKS
BATTLE CREEK   MOSUNNY   70  51  51 VRB3      29.99F
BENTON HARBOR  MOSUNNY   72  56  57 CALM      29.98S
BIG RAPIDS     MOSUNNY   69  41  36 S5        30.00S
COLDWATER      MOSUNNY   70  51  52 E6        29.99R
FREMONT        FAIR      70  39  31 SE3       30.00S
HOLLAND        PTSUNNY   73  49  42 E6        29.99F
GRAND RAPIDS   PTSUNNY   70  52  52 VRB6      29.99F
IONIA          FAIR      67  53  59 CALM      30.00S
KALAMAZOO      PTSUNNY   71  54  54 VRB6      29.99S
LUDINGTON      SUNNY     71  48  44 W8        30.00S
MARSHALL       MOSUNNY   70  52  53 E3        29.99S
MOUNT PLEASANT MOSUNNY   68  43  40 E6        30.01S
MUSKEGON       PTSUNNY   71  53  52 W7        29.99F
SOUTH HAVEN    PTSUNNY   70  54  56 SE3       29.98S
$$
MIZ016>042-031700-
NORTHERN LOWER MICHIGAN

CITY           SKY/WX    TMP DP  RH WIND       PRES   REMARKS
ALPENA         SUNNY     73  44  35 SW7       29.98F
BEAVER ISLAND  SUNNY     64  53  68 SW14G21   29.95F
BELLAIRE       SUNNY     71  50  47 SW5       29.98S
CADILLAC       SUNNY     71  52  50 SW7       30.00S
CHARLEVOIX     SUNNY     69  51  53 SW9       30.00S
FRANKFORT      SUNNY     69  46  43 SW9       29.99F
GAYLORD        SUNNY     69  49  48 W12       29.99S
GRAYLING       SUNNY     70  51  50 S5        30.00F
HARBOR SPRINGS SUNNY     67  52  59 SW5       29.97S
HOUGHTON LAKE  SUNNY     68  42  38 SW5       30.01F
MANISTEE       SUNNY     70  45  40 W10       30.00S
OSCODA         SUNNY     71  44  36 SW6       29.99F
PELLSTON       SUNNY     70  51  51 SW7       29.96S
TRAVERSE CITY  CLOUDY    72  50  45 SW6       29.96F
$$
MIZ007>008-015-031700-
EASTERN UPPER MICHIGAN

CITY           SKY/WX    TMP DP  RH WIND       PRES   REMARKS
KINROSS        MOSUNNY   70  55  60 SW10G16   29.92F
MACKINAC ISLAN MOSUNNY   65  52  63 SW9G20    29.94F
NEWBERRY       MOSUNNY   71  58  63 S10       29.91S
S. S. MARIE    PTSUNNY   71  55  56 W9        29.90F
MUNISING         N/A     74  58  57 SW10      29.87F
$$
MIZ004>006-011>014-085-031700-
CENTRAL UPPER MICHIGAN

CITY           SKY/WX    TMP DP  RH WIND       PRES   REMARKS
MANISTIQUE     SUNNY     64  56  73 SW9       29.92F
ESCANABA       SUNNY     72  52  49 SW10      29.92S
MENOMINEE      SUNNY     68  52  56 W8        29.95F
SAWYER-GWINN   CLOUDY    68  55  64 W12       29.90F
$$
MIZ001>003-009>011-084-031700-
WESTERN UPPER MICHIGAN

CITY           SKY/WX    TMP DP  RH WIND       PRES   REMARKS
IRON MOUNTAIN  MOSUNNY   70  54  56 W8        29.93F
HOUGHTON       LGT RAIN  65  56  72 W15G23    29.84F
COPPER HARBOR    N/A     66  58  75 W5        29.81F
IRONWOOD       CLOUDY    66  55  68 SW10      29.88S
$$

ABBREVIATIONS USED IN REMARKS
   TC - TEMPERATURE IN CELSIUS
  WCI - WIND CHILL INDEX
   HX - HEAT INDEX
  VSB - VISIBILITY



USA.gov is the U.S. government's official web portal to all federal, state and local government web resources and services.